Regional Weather Roundup
Issued by NWS

Home | Current Version | Previous Version | Graphics & Text | Print | Product List | Glossary Off
Versions: 1 2 3 4 5 6 7 8 9 10 11 12 13 14 15 16 17 18 19 20 21 22 23 24 25 26 27 28 29 30 31 32 33 34 35 36 37 38 39 40 41 42 43 44 45 46 47 48 49 50

000
ASUS43 KFSD 281202
RWRSD

WEATHER ROUNDUP FOR SOUTH DAKOTA
NATIONAL WEATHER SERVICE SIOUX FALLS SD
700 AM CDT FRI APR 28 2017

NOTE: "FAIR" INDICATES FEW OR NO CLOUDS BELOW 12,000 FEET WITH NO
SIGNIFICANT WEATHER AND/OR OBSTRUCTIONS TO VISIBILITY.


SDZ001>005-009-010-012>017-281300-
NORTHWEST AND NORTH CENTRAL SOUTH DAKOTA

CITY           SKY/WX    TMP DP  RH WIND       PRES   REMARKS
BUFFALO          N/A     31  25  78 NE9       29.80R WCI  23
FAITH            N/A     29  25  85 NE8       29.87R WCI  21
MOBRIDGE       PTCLDY    32  25  75 E12       29.89R WCI  23
$$

SDZ012>016-024>037-041>051-057-063-072>074-281300-
SOUTHWEST AND SOUTH CENTRAL SOUTH DAKOTA

CITY           SKY/WX    TMP DP  RH WIND       PRES   REMARKS
RAPID CTY ARPT CLOUDY    35  30  82 N9        29.81R WCI  28
PIERRE         CLOUDY    28  24  85 NE7       29.87R WCI  21
CUSTER         LGT SNOW  29  25  85 E14       29.71R VSB 3/4 WCI  18
ELLSWORTH AFB  CLOUDY    35  31  85 NE7       29.81R WCI  30
PHILIP         CLOUDY    32  29  88 E7        29.84R WCI  26
PINE RIDGE     LGT SNOW  34  33  96 E15       29.74R FOG     WCI  24
SPEARFISH      FAIR      34  32  93 E12       29.81R WCI  25
WINNER         FAIR      35  29  78 E8        29.82R WCI  29
$$

SDZ004>011-016>023-039-040-281300-
NORTHEAST SOUTH DAKOTA

CITY           SKY/WX    TMP DP  RH WIND       PRES   REMARKS
ABERDEEN       CLEAR     28  23  81 N5        29.93R WCI  23
WATERTOWN      CLEAR     24  22  91 N5        29.88R WCI  18
BROOKINGS      CLEAR     30  28  92 NE8       29.87S WCI  22
SISSETON         N/A     28  26  92 N5        29.91R WCI  23
$$

SDZ017-020-022-023-036>040-048>070-281300-
SOUTHEAST SOUTH DAKOTA

CITY           SKY/WX    TMP DP  RH WIND       PRES   REMARKS
SIOUX FALLS    CLOUDY    27  26  96 NE3       29.87R
HURON          CLOUDY    26  23  88 N3        29.90R
CHAMBERLAIN    CLOUDY    33  30  88 N3        29.86R
MITCHELL       CLOUDY    27  25  92 N3        29.88R
YANKTON        CLOUDY    30  27  86 NE5       29.84S WCI  25
$$

ABBREVIATIONS USED IN REMARKS
   TC - TEMPERATURE IN CELSIUS
  WCI - WIND CHILL INDEX
   HX - HEAT INDEX
  VSB - VISIBILITY





USA.gov is the U.S. government's official web portal to all federal, state and local government web resources and services.